EHI
0 0 0 0 0 0 0 0 0 0 0 0 0 0 0 0 0 0 0 0 0 0 0 0 0 0 0 0 0 0 0 0 0 0 0 0 0 0
0 0 0 0 0 0 0 0 0 0 0 0 0 0 0 0 0 0 0 0 0 0 0 0 0 0 0 0 0 0 0 0 0 0 0 0 0 0
0 0 0 0 0 0 0 0 0 0 0 0 0 0 0 0 0 0 0 0 0 0 0 0 0 0 0 0 0 0 0 0 0 0 0 0 0 0
0 0 0 0 0 0 0 0 0 0 0 0 0 0 0 0 0 0 0 0 0 0 0 0 0 0 0 0 0 0 0 0 0 0 0 0 0 0
0 0 0 0 0 0 0 0 0 0 0 0 0 0 0 0 0 0 0 0 0 0 0 0 0 0 0 0 0 0 0 0 0 0 0 0 0 0
0 0 0 0 0 0 0 0 0 0 0 0 0 0 0 0 0 0 0 0 0 0 0 0 0 0 0 0 0 0 0 0 0 0 0 0 0 0
0 0 0 0 0 0 0 0 0 0 0 0 0 0 0 0 0 0 0 0 0 0 0 0 0 0 0 0 0 0 0 0 0 0 0 0 0 0
0 0 0 0 0 0 0 0 0 0 0 0 0 0 0 0 0 0 0 0 0 0 0 0 0 0 0 0 0 0 0 0 0 0 0 0 0 0
0 0 0 0 0 0 0 0 0 0 0 0 0 0 0 0 0 0 0 0 0 0 0 0 0 0 0 0 0 0 0 0 0 0 0 0 0 0
0 0 0 0 0 0 0 0 0 0 0 0 0 0 0 0 0 0 0 0 0 0 0 0 0 0 0 0 0 0 0 0 0 0 0 0 0 0
0 0 0 0 0 0 0 0 0 0 0 0 0 0 0 0 0 0 0 0 0 0 0 0 0 0 0 0 0 0 0 0 0 0 0 0 0 0
0 0 0 0 0 0 0 0 0 0 0 0 0 0 0 0 0 0 0 0 0 0 0 0 0 0 0 0 0 0 0 0 0 0 0 0 0 0
0 0 0 0 0 0 0 0 0 0 0 0 0 0 0 0 0 0 0 0 0 0 0 0 0 0 0 0 0 0 0 0 0 0 0 0 0 0
0 0 0 0 0 0 0 0 0 0 0 0 0 0 0 0 0 0 0 0 0 0 0 0 0 0 0 0 0 0 0 0 0 0 0 0 0 0
0 0 0 0 0 0 0 0 0 0 0 0 0 0 0 0 0 0 0 0 0 0 0 0 0 0 0 0 0 0 0 0 0 0 0 0 0 0
0 0 0 0 0 0 0 0 0 0 0 0 0 0 0 0 0 0 0 0 0 0 0 0 0 0 0 0 0 0 0 0 0 0 0 0 0 0
0 0 0 0 0 0 0 0 0 0 0 0 0 0 0 0 0 0 0 0 0 0 0 0 0 0 0 0 0 0 0 0 0 0 0 0 0 0
0 0 0 0 0 0 0 0 0 0 0 0 0 0 0 0 0 0 0 0 0 0 0 0 0 0 0 0 0 0 0 0 0 0 0 0 0 0
0 0 0 0 0 0 0 0 0 0 0 0 0 0 0 0 0 0 0 0 0 0 0 0 0 0 0 0 0 0 0 0 0 0 0 0 0 0
0 0 0 0 0 0 0 0 0 0 0 0 0 0 0 0 0 0 0 0 0 0 0 0 0 0 0 0 0 0 0 0 0 0 0 0 0 0
0 0 0 0 0 0 0 0 0 0 0 0 0 0 0 0 0 0 0 0 0 0 0 0 0 0 0 0 0 0 0 0 0 0 0 0 0 0
0 0 0 0 0 0 0 0 0 0 0 0 0 0 0 0 0 0 0 0 0 0 0 0 0 0 0 0 0 0 0 0 0 0 0 0 0 0
0 0 0 0 0 0 0 0 0 0 0 0 0 0 0 0 0 0 0 0 0 0 0 0 0 0 0 0 0 0 0 0 0 0 0 0 0 0
Wind_Speed
11 11 8 7 6 6 5 5 5 5 5 5 4 5 5 5 4 6 7 7 10 12 13 14 15 16 17 18 19 19 20 20 20 21 22 23 24 24
9 11 10 7 6 6 6 5 6 5 5 3 3 3 4 4 6 7 7 8 12 13 14 15 15 16 17 18 18 19 20 20 21 22 22 23 24 24
11 11 11 9 7 6 5 5 5 5 6 4 3 3 5 6 5 6 6 7 7 11 14 15 16 16 17 17 18 19 20 20 21 21 22 23 23 24
13 12 11 8 9 7 6 7 6 6 6 6 4 4 6 6 6 7 6 6 7 10 14 15 16 16 17 17 18 19 19 19 20 21 21 22 23 24
13 13 12 11 10 8 8 7 6 5 5 5 4 3 4 4 5 6 7 7 7 8 12 13 14 16 16 17 18 18 18 19 20 20 21 22 23 23
11 11 11 12 11 10 8 8 6 6 5 4 4 4 4 4 5 5 6 5 6 6 8 10 12 15 16 16 16 17 17 18 19 20 21 21 22 22
10 10 10 10 11 9 7 8 7 6 5 5 4 4 4 4 4 4 5 6 7 6 6 7 8 8 9 11 13 15 17 18 19 20 21 21 21 22
10 9 9 9 10 12 11 10 10 8 7 5 5 5 6 5 4 4 5 6 6 3 6 8 7 8 8 7 12 16 17 18 19 20 21 21 22 22
10 9 7 7 10 9 10 10 10 10 8 6 6 6 5 4 4 5 5 6 7 6 6 8 8 8 8 8 14 16 17 18 19 19 20 21 21 21
9 9 9 9 9 9 8 7 7 7 7 6 5 5 4 3 4 4 6 7 8 6 5 7 8 8 9 9 12 14 17 18 19 20 20 20 20 21
7 7 8 8 10 11 8 7 6 5 4 5 4 3 3 4 3 3 3 4 6 6 4 5 7 9 9 9 9 13 16 17 18 18 19 19 20 20
6 6 7 8 10 12 9 7 7 5 4 4 4 4 4 4 5 4 3 4 5 5 3 4 6 7 7 6 7 9 10 13 16 17 17 18 19 13
6 5 5 10 11 12 9 6 6 5 4 4 3 2 2 2 2 2 2 3 5 6 4 4 6 6 7 8 9 9 9 9 10 11 13 16 17 15
6 5 6 10 11 11 7 5 6 5 3 3 2 3 2 2 2 2 2 3 4 6 6 5 5 6 8 9 9 8 9 9 9 9 9 13 14 16
4 6 8 10 9 7 6 7 6 3 3 3 3 3 2 2 1 1 2 3 5 5 5 5 6 7 7 9 9 10 11 9 8 8 9 10 10 10
5 7 9 9 5 5 5 5 3 3 3 3 2 1 1 1 2 2 3 3 4 4 4 5 6 7 8 10 9 10 10 8 9 9 10 10 10 9
7 5 4 4 4 3 3 3 3 3 2 1 2 2 2 2 2 2 2 3 4 5 5 4 5 6 9 9 9 9 9 9 9 10 10 11 10 9
7 5 5 5 4 4 4 3 3 3 2 2 2 2 2 2 2 2 2 3 4 5 5 5 5 6 6 5 7 8 8 9 9 10 10 10 11 10
5 5 5 5 4 4 4 3 3 2 2 2 2 2 2 2 2 3 3 3 4 5 5 4 4 5 7 8 5 4 8 9 10 10 9 9 11 11
4 4 4 4 4 4 4 3 3 3 2 2 2 2 2 3 3 3 3 4 4 4 5 4 3 4 6 7 7 8 10 10 9 10 10 10 10 13
4 4 4 4 4 3 3 3 3 3 3 2 2 2 3 3 3 3 3 4 5 4 5 5 4 6 5 6 7 8 8 9 11 10 10 10 10 9
4 4 3 3 3 3 3 3 3 3 3 3 3 3 2 3 3 3 3 4 4 4 5 4 4 4 4 5 8 9 10 10 10 12 11 9 7 8
4 4 4 4 4 3 3 3 3 3 3 3 2 2 2 2 2 3 3 3 3 4 4 4 4 4 4 5 7 8 11 11 9 8 7 10 12 14
Wind_Direction
206 206 208 206 204 207 209 211 226 246 245 224 216 216 223 235 223 246 263 267 277 286 292 295 299 302 303 304 304 304 306 306 306 306 305 305 306 306
202 204 206 204 200 199 205 214 224 239 255 234 225 216 223 239 240 258 267 274 270 279 286 291 294 297 300 302 302 303 304 304 305 306 306 306 307 307
200 204 206 201 196 195 197 205 217 224 244 252 237 234 236 244 243 256 268 272 274 275 283 288 291 295 298 300 301 303 304 305 306 306 307 308 309 308
201 202 204 196 200 196 196 205 212 218 232 249 244 236 243 250 260 266 269 271 276 280 283 287 289 292 296 298 301 303 304 305 305 306 307 308 309 309
201 201 200 195 201 198 199 204 208 214 225 239 254 250 252 250 262 267 270 275 278 281 283 283 286 290 294 297 301 303 305 306 306 306 307 308 308 308
201 201 199 196 201 198 199 204 202 205 213 226 245 249 253 254 260 269 276 277 282 285 283 286 288 288 289 294 299 302 305 306 306 306 306 307 308 307
197 200 200 198 201 196 193 197 194 200 205 219 235 246 248 248 254 265 278 291 289 285 291 291 292 290 293 294 297 301 304 306 306 307 307 308 308 308
194 196 195 196 200 201 202 199 195 197 205 214 232 242 252 257 264 270 284 294 296 297 296 295 296 293 296 297 304 304 303 305 308 309 309 309 309 308
193 190 188 195 196 200 202 203 208 213 213 216 232 242 255 256 260 269 274 281 285 301 305 294 296 293 297 296 299 299 302 306 309 310 310 310 309 309
191 192 191 191 192 191 191 200 209 213 217 225 237 249 260 260 260 271 282 286 290 287 286 287 298 302 306 302 299 300 303 306 309 310 311 311 312 311
186 189 192 193 188 184 186 193 203 211 210 224 249 252 247 245 254 263 272 283 291 291 285 283 299 308 303 297 300 304 304 305 307 309 310 311 313 313
176 181 187 191 182 183 188 188 197 202 191 195 213 220 229 231 239 252 265 278 291 294 306 295 303 317 306 298 309 310 306 306 308 309 309 310 314 312
176 180 184 185 185 188 193 195 194 185 188 195 203 214 225 234 242 255 258 264 276 279 297 304 299 302 291 300 305 304 307 310 310 307 306 310 312 311
176 177 175 176 182 185 189 183 170 169 177 186 202 217 230 241 252 262 266 270 276 280 291 293 285 292 296 297 299 305 311 309 308 307 310 312 310 307
161 158 158 166 171 176 178 173 170 173 177 196 217 234 245 252 261 273 275 277 278 275 276 276 276 284 285 288 294 302 308 309 307 310 312 311 309 308
138 139 143 147 150 154 162 168 174 181 187 203 223 243 247 254 256 269 282 291 290 286 275 278 280 280 280 285 289 295 302 304 309 312 312 308 306 304
140 133 140 151 160 161 163 170 173 178 190 196 212 227 240 253 262 271 279 281 283 294 301 298 290 284 277 279 286 292 302 306 309 314 313 308 306 306
146 154 162 168 174 176 177 179 184 191 191 196 214 231 245 255 264 264 264 271 282 290 297 305 310 308 299 272 250 284 300 308 312 312 308 306 307 310
155 165 171 175 178 178 181 185 191 191 191 198 213 229 245 253 257 260 263 271 280 288 296 301 303 308 312 314 302 266 300 308 308 308 308 307 305 307
166 170 173 175 177 178 181 184 186 187 194 205 215 223 234 245 252 258 263 274 284 291 294 295 297 302 300 303 303 298 295 298 306 307 309 308 301 298
169 169 169 172 175 176 180 182 186 194 198 208 217 224 230 237 249 259 267 272 275 284 292 300 308 304 288 281 285 294 305 305 300 297 305 310 313 313
167 166 165 169 172 174 177 180 184 193 197 210 218 223 228 235 246 256 266 273 275 283 290 297 304 299 288 289 300 306 311 316 310 299 289 290 308 313
167 167 167 170 173 173 177 182 189 197 203 210 217 222 225 234 247 257 265 270 280 287 292 299 303 299 294 294 300 305 311 318 320 322 319 320 314 302